Time,TemperatureF,DewpointF,PressureIn,WindDirection,WindDirectionDegrees,WindSpeedMPH,WindSpeedGustMPH,Humidity,HourlyPrecipIn,Conditions,Clouds,dailyrainin,SolarRadiationWatts/m^2,SoftwareType,DateUTC
2013-08-01 00:00:00,79.0,69.0,-100.00,North,6,5.0,-999.0,72,0.00,,,0.00,0.000000,,2013-08-01 05:00:00,
2013-08-01 00:23:00,79.0,69.0,-100.00,North,6,5.0,-999.0,72,0.00,,,0.00,0.000000,,2013-08-01 05:23:00,
2013-08-01 00:33:00,79.0,69.0,-100.00,North,6,5.0,-999.0,72,0.00,,,0.00,0.000000,,2013-08-01 05:33:00,
2013-08-01 00:43:00,79.0,69.0,-100.00,North,6,5.0,-999.0,72,0.00,,,0.00,0.000000,,2013-08-01 05:43:00,
2013-08-01 00:53:00,79.0,69.0,-100.00,North,6,5.0,-999.0,72,0.00,,,0.00,0.000000,,2013-08-01 05:53:00,
2013-08-01 01:00:00,78.0,67.0,-100.00,NNE,16,3.0,-999.0,67,0.00,,,0.00,0.000000,,2013-08-01 06:00:00,
2013-08-01 01:33:00,78.0,67.0,-100.00,NNE,16,3.0,-999.0,67,0.00,,,0.00,0.000000,,2013-08-01 06:33:00,
2013-08-01 01:43:00,78.0,67.0,-100.00,NNE,16,3.0,-999.0,67,0.00,,,0.00,0.000000,,2013-08-01 06:43:00,
2013-08-01 01:53:00,78.0,67.0,-100.00,NNE,16,3.0,-999.0,67,0.00,,,0.00,0.000000,,2013-08-01 06:53:00,
2013-08-01 02:00:00,78.0,66.0,-100.00,NNE,30,2.0,-999.0,67,0.00,,,0.00,0.000000,,2013-08-01 07:00:00,
2013-08-01 02:23:00,78.0,66.0,-100.00,NNE,30,2.0,-999.0,67,0.00,,,0.00,0.000000,,2013-08-01 07:23:00,
2013-08-01 02:32:00,78.0,66.0,-100.00,NNE,30,2.0,-999.0,67,0.00,,,0.00,0.000000,,2013-08-01 07:32:00,
2013-08-01 02:43:00,78.0,66.0,-100.00,NNE,30,2.0,-999.0,67,0.00,,,0.00,0.000000,,2013-08-01 07:43:00,
2013-08-01 02:55:00,78.0,66.0,-100.00,NNE,30,2.0,-999.0,67,0.00,,,0.00,0.000000,,2013-08-01 07:55:00,
2013-08-01 03:00:00,75.0,67.0,-100.00,NNW,340,2.0,-999.0,76,0.00,,,0.00,0.000000,,2013-08-01 08:00:00,
2013-08-01 03:25:00,75.0,67.0,-100.00,NNW,340,2.0,-999.0,76,0.00,,,0.00,0.000000,,2013-08-01 08:25:00,
2013-08-01 03:37:00,75.0,67.0,-100.00,NNW,340,2.0,-999.0,76,0.00,,,0.00,0.000000,,2013-08-01 08:37:00,
2013-08-01 03:48:00,75.0,67.0,-100.00,NNW,340,2.0,-999.0,76,0.00,,,0.00,0.000000,,2013-08-01 08:48:00,
2013-08-01 04:00:00,74.0,68.0,-100.00,NNW,330,3.0,-999.0,81,0.00,,,0.00,0.000000,,2013-08-01 09:00:00,
2013-08-01 04:31:00,74.0,68.0,-100.00,NNW,330,3.0,-999.0,81,0.00,,,0.00,0.000000,,2013-08-01 09:31:00,
2013-08-01 04:41:00,74.0,68.0,-100.00,NNW,330,3.0,-999.0,81,0.00,,,0.00,0.000000,,2013-08-01 09:41:00,
2013-08-01 05:40:00,74.0,67.0,-100.00,North,5,2.0,-999.0,79,0.00,,,0.00,0.000000,,2013-08-01 10:40:00,
2013-08-01 05:59:00,74.0,67.0,-100.00,North,5,2.0,-999.0,79,0.00,,,0.00,0.000000,,2013-08-01 10:59:00,
2013-08-01 06:00:00,74.0,67.0,-100.00,NNE,32,1.0,-999.0,79,0.00,,,0.00,0.000000,,2013-08-01 11:00:00,
2013-08-01 06:37:00,74.0,67.0,-100.00,NNE,32,1.0,-999.0,79,0.00,,,0.00,0.000000,,2013-08-01 11:37:00,
2013-08-01 06:49:00,74.0,67.0,-100.00,NNE,32,1.0,-999.0,79,0.00,,,0.00,0.000000,,2013-08-01 11:49:00,
2013-08-01 07:00:00,70.0,68.0,-100.00,South,174,1.0,-999.0,91,0.00,,,0.00,1.000000,,2013-08-01 12:00:00,
2013-08-01 07:34:00,70.0,68.0,-100.00,South,174,1.0,-999.0,91,0.00,,,0.00,1.000000,,2013-08-01 12:34:00,
2013-08-01 08:00:00,71.0,66.0,-100.00,ESE,117,1.0,-999.0,83,0.00,,,0.00,87.000000,,2013-08-01 13:00:00,
2013-08-01 08:36:00,71.0,66.0,-100.00,ESE,117,1.0,-999.0,83,0.00,,,0.00,87.000000,,2013-08-01 13:36:00,
2013-08-01 08:55:00,71.0,66.0,-100.00,ESE,117,1.0,-999.0,83,0.00,,,0.00,87.000000,,2013-08-01 13:55:00,
2013-08-01 10:00:00,79.0,65.0,-100.00,ENE,60,3.0,-999.0,62,0.00,,,0.00,469.000000,,2013-08-01 15:00:00,
2013-08-01 10:38:00,79.0,65.0,-100.00,ENE,60,3.0,-999.0,62,0.00,,,0.00,469.000000,,2013-08-01 15:38:00,
2013-08-01 12:00:00,83.0,63.0,-100.00,ENE,59,6.0,-999.0,51,0.00,,,0.00,803.000000,,2013-08-01 17:00:00,
2013-08-01 12:42:00,83.0,63.0,-100.00,ENE,59,6.0,-999.0,51,0.00,,,0.00,803.000000,,2013-08-01 17:42:00,
2013-08-01 12:58:00,83.0,63.0,-100.00,ENE,59,6.0,-999.0,51,0.00,,,0.00,803.000000,,2013-08-01 17:58:00,
2013-08-01 13:00:00,84.0,64.0,-100.00,ENE,60,5.0,-999.0,50,0.00,,,0.00,904.000000,,2013-08-01 18:00:00,
2013-08-01 13:40:00,84.0,64.0,-100.00,ENE,60,5.0,-999.0,50,0.00,,,0.00,904.000000,,2013-08-01 18:40:00,
2013-08-01 13:55:00,84.0,64.0,-100.00,ENE,60,5.0,-999.0,50,0.00,,,0.00,904.000000,,2013-08-01 18:55:00,
2013-08-01 14:30:00,86.0,61.0,-100.00,ENE,60,5.0,-999.0,43,0.00,,,0.00,943.000000,,2013-08-01 19:30:00,
2013-08-01 15:27:00,87.0,58.0,-100.00,ENE,66,5.0,-999.0,38,0.00,,,0.00,566.000000,,2013-08-01 20:27:00,
2013-08-01 15:58:00,87.0,58.0,-100.00,ENE,66,5.0,-999.0,38,0.00,,,0.00,566.000000,,2013-08-01 20:58:00,
2013-08-01 16:00:00,90.0,59.0,-100.00,East,82,2.0,-999.0,36,0.00,,,0.00,850.000000,,2013-08-01 21:00:00,
2013-08-01 16:34:00,90.0,59.0,-100.00,East,82,2.0,-999.0,36,0.00,,,0.00,850.000000,,2013-08-01 21:34:00,
2013-08-01 16:43:00,90.0,59.0,-100.00,East,82,2.0,-999.0,36,0.00,,,0.00,850.000000,,2013-08-01 21:43:00,
2013-08-01 16:53:00,90.0,59.0,-100.00,East,82,2.0,-999.0,36,0.00,,,0.00,850.000000,,2013-08-01 21:53:00,
2013-08-01 17:23:00,90.0,58.0,-100.00,ENE,69,3.0,-999.0,35,0.00,,,0.00,663.000000,,2013-08-01 22:23:00,
2013-08-01 18:00:00,90.0,62.0,-100.00,ENE,78,2.0,-999.0,40,0.00,,,0.00,570.000000,,2013-08-01 23:00:00,
2013-08-01 18:25:00,90.0,62.0,-100.00,ENE,78,2.0,-999.0,40,0.00,,,0.00,570.000000,,2013-08-01 23:25:00,
2013-08-01 18:33:00,90.0,62.0,-100.00,ENE,78,2.0,-999.0,40,0.00,,,0.00,570.000000,,2013-08-01 23:33:00,
2013-08-01 18:52:00,90.0,62.0,-100.00,ENE,78,2.0,-999.0,40,0.00,,,0.00,570.000000,,2013-08-01 23:52:00,
2013-08-01 19:00:00,89.0,62.0,-100.00,East,89,1.0,-999.0,41,0.00,,,0.00,380.000000,,2013-08-02 00:00:00,
2013-08-01 19:27:00,89.0,62.0,-100.00,East,89,1.0,-999.0,41,0.00,,,0.00,380.000000,,2013-08-02 00:27:00,
2013-08-01 19:37:00,89.0,62.0,-100.00,East,89,1.0,-999.0,41,0.00,,,0.00,380.000000,,2013-08-02 00:37:00,
2013-08-01 19:52:00,89.0,62.0,-100.00,East,89,1.0,-999.0,41,0.00,,,0.00,380.000000,,2013-08-02 00:52:00,
2013-08-01 20:37:00,89.0,67.0,-100.00,SE,134,0.0,-999.0,48,0.00,,,0.00,181.000000,,2013-08-02 01:37:00,
2013-08-01 20:48:00,89.0,67.0,-100.00,SE,134,0.0,-999.0,48,0.00,,,0.00,181.000000,,2013-08-02 01:48:00,
2013-08-01 20:59:00,89.0,67.0,-100.00,SE,134,0.0,-999.0,48,0.00,,,0.00,181.000000,,2013-08-02 01:59:00,
2013-08-01 21:00:00,85.0,68.0,-100.00,South,184,0.0,-999.0,58,0.00,,,0.00,22.000000,,2013-08-02 02:00:00,
2013-08-01 21:34:00,85.0,68.0,-100.00,South,184,0.0,-999.0,58,0.00,,,0.00,22.000000,,2013-08-02 02:34:00,
2013-08-01 21:45:00,85.0,68.0,-100.00,South,184,0.0,-999.0,58,0.00,,,0.00,22.000000,,2013-08-02 02:45:00,
2013-08-01 21:53:00,85.0,68.0,-100.00,South,184,0.0,-999.0,58,0.00,,,0.00,22.000000,,2013-08-02 02:53:00,
2013-08-01 22:00:00,80.0,68.0,-100.00,South,180,0.0,-999.0,66,0.00,,,0.00,0.000000,,2013-08-02 03:00:00,
2013-08-01 22:37:00,80.0,68.0,-100.00,South,180,0.0,-999.0,66,0.00,,,0.00,0.000000,,2013-08-02 03:37:00,
2013-08-01 22:52:00,80.0,68.0,-100.00,South,180,0.0,-999.0,66,0.00,,,0.00,0.000000,,2013-08-02 03:52:00,
2013-08-01 22:59:00,80.0,68.0,-100.00,South,180,0.0,-999.0,66,0.00,,,0.00,0.000000,,2013-08-02 03:59:00,
2013-08-01 23:00:00,78.0,69.0,-100.00,SSE,154,1.0,-999.0,74,0.00,,,0.00,0.000000,,2013-08-02 04:00:00,
2013-08-01 23:22:00,78.0,69.0,-100.00,SSE,154,1.0,-999.0,74,0.00,,,0.00,0.000000,,2013-08-02 04:22:00,
2013-08-01 23:33:00,78.0,69.0,-100.00,SSE,154,1.0,-999.0,74,0.00,,,0.00,0.000000,,2013-08-02 04:33:00,
2013-08-01 23:43:00,78.0,69.0,-100.00,SSE,154,1.0,-999.0,74,0.00,,,0.00,0.000000,,2013-08-02 04:43:00,
2013-08-01 23:53:00,78.0,69.0,-100.00,SSE,154,1.0,-999.0,74,0.00,,,0.00,0.000000,,2013-08-02 04:53:00,